sat.trackr.live / text

‹ back to catalog

STARLINK-35477

NORAD 66338 · 2025-253V

PAYLOAD ACTIVE UNKNOWN

§ Identity

Operator
Country
US
Launch date
2025-11-06
Launch site
AFETR
Launch vehicle
Mass (kg)
RCS (m²)

Purposes: comms

External: N2YO · Heavens-Above · Gunter

§ Orbital elements

Epoch: 2026-09-20T04:49:55.817472Z

Period
94.27 min
Inclination
43.0025°
Eccentricity
0.0000506
Mean motion
15.27588237 rev/d
Perigee alt
482.7 km
Apogee alt
483.4 km
Semi-major
6,861.2 km
B*
3.7448e-4
RAAN
193.9131°
Arg perigee
338.5651°
Mean anomaly
21.5179°
Rev number
4,999

§ Raw data

STARLINK-354771 66338U 25253V   26263.20134048  .00010059  00000+0  37448-3 0  99972 66338  43.0025 193.9131 0000506 338.5651  21.5179 15.27588237 49995

JSON: /api/v1/satellites/66338 · /tle

For live sub-satellite position, see the globe view (requires WebGL).

§ Visibility from observer

Set your observer location to see the next 7 days of passes ≥ 10°. The values pass through the URL so the page stays shareable.

No JS? Fill the form by hand. The geolocation button needs JavaScript.